Location: Unspecified
(22.6800°N, 112.2000°E)
Time: 10:51:45
(UTC+08:00)

S-56A Canister/Altair - Pass Details

Date: 31 July 2021
Orbit: 632 x 2500 km, 38.9° (Epoch: 27 September)

Event Time Altitude Azimuth Distance (km) Brightness Sun altitude
Rises 00:49:58 0° 284° (WNW) 5,298 11.9 -48.9°
Enters shadow 00:52:48 - 276° (W) 4,581 11.5 -48.8°
Reaches altitude 10° 00:56:05 10° 262° (W) 3,844 - -48.7°
Maximum altitude 01:00:20 14° 236° (SW) 3,207 - -48.6°
Drops below altitude 10° 01:04:00 10° 208° (SSW) 3,172 - -48.5°
Sets 01:08:09 0° 182° (S) 3,768 - -48.3°
